Location: Street
(51.1247°N, 2.7429°W)
Time: 03:01:30
(UTC+00:00)

deb Explorer IX - Pass Details

Date: 13 December 2020
Orbit: 536 x 1104 km, 38.8° (Epoch: 20 January)

Event Time Altitude Azimuth Distance (km) Brightness Sun altitude
Rises 10:58:01 0° 221° (SW) 3,827 ? 14.2°
Reaches altitude 10° 11:01:19 10° 207° (SSW) 2,921 ? 14.4°
Maximum altitude 11:06:40 23° 159° (SSE) 2,165 ? 14.6°
Drops below altitude 10° 11:12:03 10° 112° (ESE) 2,941 ? 14.8°
Sets 11:15:22 0° 98° (E) 3,860 ? 14.9°
